Time,TemperatureF,DewpointF,PressureIn,WindDirection,WindDirectionDegrees,WindSpeedMPH,WindSpeedGustMPH,Humidity,HourlyPrecipIn,Conditions,Clouds,dailyrainin,SoftwareType,DateUTC
2013-05-17 00:02:00,49.0,34.0,29.62,WNW,302,0.0,2.0,56,0.00,,,0.00,,2013-05-17 06:02:00,
2013-05-17 00:11:00,49.0,34.0,29.62,WNW,302,0.0,2.0,56,0.00,,,0.00,,2013-05-17 06:11:00,
2013-05-17 00:21:00,49.0,34.0,29.64,SE,128,2.0,5.0,57,0.00,,,0.00,,2013-05-17 06:21:00,
2013-05-17 00:32:00,49.0,34.0,29.64,NW,304,6.0,8.0,57,0.00,,,0.00,,2013-05-17 06:32:00,
2013-05-17 00:42:00,49.0,34.0,29.64,NW,304,6.0,8.0,57,0.00,,,0.00,,2013-05-17 06:42:00,
2013-05-17 00:52:00,50.0,34.0,29.63,NW,313,2.0,6.0,53,0.00,,,0.00,,2013-05-17 06:52:00,
2013-05-17 01:02:00,51.0,34.0,29.63,WNW,293,0.0,7.0,51,0.00,,,0.00,,2013-05-17 07:02:00,
2013-05-17 01:11:00,51.0,34.0,29.63,WNW,293,0.0,7.0,51,0.00,,,0.00,,2013-05-17 07:11:00,
2013-05-17 01:21:00,51.0,35.0,29.63,WNW,293,1.0,3.0,54,0.00,,,0.00,,2013-05-17 07:21:00,
2013-05-17 01:32:00,49.0,34.0,29.65,WNW,299,2.0,5.0,57,0.00,,,0.00,,2013-05-17 07:32:00,
2013-05-17 01:43:00,49.0,34.0,29.65,WNW,299,2.0,5.0,57,0.00,,,0.00,,2013-05-17 07:43:00,
2013-05-17 01:53:00,49.0,33.0,29.65,West,264,2.0,6.0,53,0.00,,,0.00,,2013-05-17 07:53:00,
2013-05-17 02:02:00,48.0,34.0,29.62,WSW,251,3.0,5.0,57,0.00,,,0.00,,2013-05-17 08:02:00,
2013-05-17 02:12:00,48.0,34.0,29.62,WSW,251,3.0,5.0,57,0.00,,,0.00,,2013-05-17 08:12:00,
2013-05-17 02:22:00,47.0,33.0,29.62,WSW,245,0.0,6.0,57,0.00,,,0.00,,2013-05-17 08:22:00,
2013-05-17 02:33:00,46.0,32.0,29.63,West,275,2.0,8.0,57,0.00,,,0.00,,2013-05-17 08:33:00,
2013-05-17 02:42:00,46.0,32.0,29.63,West,275,2.0,8.0,57,0.00,,,0.00,,2013-05-17 08:42:00,
2013-05-17 02:51:00,46.0,32.0,29.63,West,275,1.0,3.0,59,0.00,,,0.00,,2013-05-17 08:51:00,
2013-05-17 03:02:00,44.0,32.0,29.70,West,275,0.0,1.0,62,0.00,,,0.00,,2013-05-17 09:02:00,
2013-05-17 03:12:00,44.0,32.0,29.70,West,275,0.0,1.0,62,0.00,,,0.00,,2013-05-17 09:12:00,
2013-05-17 03:22:00,43.0,32.0,29.70,WNW,282,2.0,5.0,64,0.00,,,0.00,,2013-05-17 09:22:00,
2013-05-17 03:33:00,43.0,31.0,29.71,West,280,1.0,5.0,63,0.00,,,0.00,,2013-05-17 09:33:00,
2013-05-17 03:42:00,43.0,31.0,29.71,West,280,1.0,5.0,63,0.00,,,0.00,,2013-05-17 09:42:00,
2013-05-17 03:53:00,42.0,31.0,29.72,NNW,333,1.0,3.0,66,0.00,,,0.00,,2013-05-17 09:53:00,
2013-05-17 04:03:00,41.0,31.0,29.67,NNW,333,1.0,2.0,68,0.00,,,0.00,,2013-05-17 10:03:00,
2013-05-17 04:12:00,41.0,31.0,29.67,NNW,333,1.0,2.0,68,0.00,,,0.00,,2013-05-17 10:12:00,
2013-05-17 04:23:00,41.0,32.0,29.69,NNW,331,1.0,3.0,69,0.00,,,0.00,,2013-05-17 10:23:00,
2013-05-17 04:33:00,40.0,31.0,29.68,NNW,331,0.0,3.0,70,0.00,,,0.00,,2013-05-17 10:33:00,
2013-05-17 04:42:00,40.0,31.0,29.68,NNW,331,0.0,3.0,70,0.00,,,0.00,,2013-05-17 10:42:00,
2013-05-17 04:53:00,40.0,31.0,29.69,NNW,331,2.0,3.0,71,0.00,,,0.00,,2013-05-17 10:53:00,
2013-05-17 05:02:00,39.0,31.0,29.73,NNW,331,2.0,5.0,72,0.00,,,0.00,,2013-05-17 11:02:00,
2013-05-17 05:12:00,39.0,31.0,29.73,NNW,331,2.0,5.0,72,0.00,,,0.00,,2013-05-17 11:12:00,
2013-05-17 05:22:00,40.0,32.0,29.73,NNW,331,0.0,5.0,72,0.00,,,0.00,,2013-05-17 11:22:00,
2013-05-17 05:34:00,38.0,30.0,29.74,NNW,331,0.0,3.0,74,0.00,,,0.00,,2013-05-17 11:34:00,
2013-05-17 05:42:00,38.0,30.0,29.74,NNW,331,0.0,3.0,74,0.00,,,0.00,,2013-05-17 11:42:00,
2013-05-17 05:53:00,38.0,31.0,29.75,NNW,331,0.0,2.0,75,0.00,,,0.00,,2013-05-17 11:53:00,
2013-05-17 06:03:00,38.0,31.0,29.72,NNW,330,0.0,3.0,76,0.00,,,0.00,,2013-05-17 12:03:00,
2013-05-17 06:12:00,38.0,31.0,29.72,NNW,330,0.0,3.0,76,0.00,,,0.00,,2013-05-17 12:12:00,
2013-05-17 06:23:00,38.0,31.0,29.72,NNW,330,0.0,2.0,77,0.00,,,0.00,,2013-05-17 12:23:00,
2013-05-17 06:32:00,38.0,31.0,29.73,NNW,330,0.0,3.0,76,0.00,,,0.00,,2013-05-17 12:32:00,
2013-05-17 06:43:00,38.0,31.0,29.73,NNW,330,0.0,3.0,76,0.00,,,0.00,,2013-05-17 12:43:00,
2013-05-17 06:53:00,41.0,32.0,29.73,NNW,330,0.0,3.0,71,0.00,,,0.00,,2013-05-17 12:53:00,
2013-05-17 07:03:00,42.0,33.0,29.73,NNW,330,0.0,1.0,70,0.00,,,0.00,,2013-05-17 13:03:00,
2013-05-17 07:12:00,42.0,33.0,29.73,NNW,330,0.0,1.0,70,0.00,,,0.00,,2013-05-17 13:12:00,
2013-05-17 07:23:00,42.0,34.0,29.73,NNW,330,2.0,3.0,72,0.00,,,0.00,,2013-05-17 13:23:00,
2013-05-17 07:33:00,43.0,34.0,29.73,NNW,330,0.0,1.0,69,0.00,,,0.00,,2013-05-17 13:33:00,
2013-05-17 07:42:00,43.0,34.0,29.73,NNW,330,0.0,1.0,69,0.00,,,0.00,,2013-05-17 13:42:00,
2013-05-17 07:52:00,44.0,34.0,29.72,NNW,330,0.0,2.0,68,0.00,,,0.00,,2013-05-17 13:52:00,
2013-05-17 08:02:00,46.0,36.0,29.74,NNW,330,0.0,1.0,68,0.00,,,0.00,,2013-05-17 14:02:00,
2013-05-17 08:13:00,46.0,36.0,29.74,NNW,330,0.0,1.0,68,0.00,,,0.00,,2013-05-17 14:13:00,
2013-05-17 08:22:00,49.0,37.0,29.72,NNE,29,0.0,2.0,62,0.00,,,0.00,,2013-05-17 14:22:00,
2013-05-17 08:34:00,50.0,37.0,29.70,NNE,29,0.0,2.0,61,0.00,,,0.00,,2013-05-17 14:34:00,
2013-05-17 08:43:00,50.0,37.0,29.70,NNE,29,0.0,2.0,61,0.00,,,0.00,,2013-05-17 14:43:00,
2013-05-17 08:53:00,53.0,37.0,29.68,East,97,2.0,5.0,55,0.00,,,0.00,,2013-05-17 14:53:00,
2013-05-17 09:03:00,55.0,39.0,29.68,East,98,1.0,5.0,54,0.00,,,0.00,,2013-05-17 15:03:00,
2013-05-17 09:14:00,55.0,39.0,29.68,East,98,1.0,5.0,54,0.00,,,0.00,,2013-05-17 15:14:00,
2013-05-17 09:25:00,58.0,39.0,29.66,NE,38,1.0,3.0,50,0.00,,,0.00,,2013-05-17 15:25:00,
2013-05-17 09:37:00,63.0,27.0,29.62,WSW,245,8.0,16.0,25,0.00,,,0.00,,2013-05-17 15:37:00,
2013-05-17 09:56:00,65.0,22.0,29.61,WNW,289,11.0,20.0,19,0.00,,,0.00,,2013-05-17 15:56:00,
2013-05-17 10:07:00,65.0,22.0,29.62,West,276,9.0,22.0,19,0.00,,,0.00,,2013-05-17 16:07:00,
2013-05-17 10:26:00,66.0,21.0,29.63,WSW,245,12.0,21.0,18,0.00,,,0.00,,2013-05-17 16:26:00,
2013-05-17 10:37:00,66.0,23.0,29.63,SW,232,10.0,22.0,19,0.00,,,0.00,,2013-05-17 16:37:00,
2013-05-17 10:49:00,66.0,23.0,29.63,SW,232,10.0,22.0,19,0.00,,,0.00,,2013-05-17 16:49:00,
2013-05-17 10:56:00,66.0,23.0,29.63,SW,216,10.0,18.0,19,0.00,,,0.00,,2013-05-17 16:56:00,
2013-05-17 11:08:00,67.0,22.0,29.64,South,182,12.0,17.0,18,0.00,,,0.00,,2013-05-17 17:08:00,
2013-05-17 11:19:00,67.0,22.0,29.64,South,182,12.0,17.0,18,0.00,,,0.00,,2013-05-17 17:19:00,
2013-05-17 11:30:00,67.0,21.0,29.63,SSE,168,12.0,16.0,17,0.00,,,0.00,,2013-05-17 17:30:00,
2013-05-17 11:40:00,68.0,-99.9,29.63,WSW,249,13.0,22.0,15,0.00,,,0.00,,2013-05-17 17:40:00,
2013-05-17 11:49:00,68.0,19.0,29.63,WSW,249,13.0,22.0,15,0.00,,,0.00,,2013-05-17 17:49:00,
2013-05-17 12:00:00,68.0,19.0,29.62,West,261,12.0,22.0,15,0.00,,,0.00,,2013-05-17 18:00:00,
2013-05-17 12:09:00,69.0,19.0,29.63,WSW,243,13.0,18.0,15,0.00,,,0.00,,2013-05-17 18:09:00,
2013-05-17 12:20:00,69.0,19.0,29.63,WSW,243,13.0,18.0,15,0.00,,,0.00,,2013-05-17 18:20:00,
2013-05-17 12:30:00,69.0,18.0,29.62,WNW,300,6.0,16.0,14,0.00,,,0.00,,2013-05-17 18:30:00,
2013-05-17 12:40:00,70.0,-99.9,29.59,West,278,7.0,20.0,15,0.00,,,0.00,,2013-05-17 18:40:00,
2013-05-17 12:50:00,-999.0,-99.9,29.59,West,278,7.0,20.0,15,0.00,,,0.00,,2013-05-17 18:50:00,
2013-05-17 13:00:00,70.0,22.0,29.59,WSW,242,14.0,20.0,16,0.00,,,0.00,,2013-05-17 19:00:00,
2013-05-17 13:10:00,70.0,22.0,29.60,West,273,10.0,20.0,16,0.00,,,0.00,,2013-05-17 19:10:00,
2013-05-17 13:20:00,70.0,22.0,29.60,West,273,10.0,20.0,16,0.00,,,0.00,,2013-05-17 19:20:00,
2013-05-17 13:30:00,71.0,21.0,29.58,West,265,9.0,20.0,15,0.00,,,0.00,,2013-05-17 19:30:00,
2013-05-17 13:40:00,72.0,22.0,29.57,West,279,9.0,21.0,15,0.00,,,0.00,,2013-05-17 19:40:00,
2013-05-17 13:50:00,72.0,22.0,29.57,West,279,9.0,21.0,15,0.00,,,0.00,,2013-05-17 19:50:00,
2013-05-17 14:00:00,72.0,-99.9,29.56,WSW,251,12.0,25.0,17,0.00,,,0.00,,2013-05-17 20:00:00,
2013-05-17 14:09:00,73.0,19.0,29.57,West,268,12.0,21.0,13,0.00,,,0.00,,2013-05-17 20:09:00,
2013-05-17 14:20:00,73.0,19.0,29.57,West,268,12.0,21.0,13,0.00,,,0.00,,2013-05-17 20:20:00,
2013-05-17 14:30:00,73.0,23.0,29.56,SW,235,9.0,18.0,15,0.00,,,0.00,,2013-05-17 20:30:00,
2013-05-17 14:40:00,73.0,21.0,29.55,SW,220,13.0,21.0,14,0.00,,,0.00,,2013-05-17 20:40:00,
2013-05-17 14:50:00,73.0,21.0,29.55,SW,220,13.0,21.0,14,0.00,,,0.00,,2013-05-17 20:50:00,
2013-05-17 14:58:00,73.0,24.0,29.56,SW,234,3.0,13.0,16,0.00,,,0.00,,2013-05-17 20:58:00,
2013-05-17 15:07:00,70.0,27.0,29.58,ESE,108,9.0,14.0,20,0.00,,,0.00,,2013-05-17 21:07:00,
2013-05-17 15:17:00,70.0,27.0,29.58,ESE,108,9.0,14.0,20,0.00,,,0.00,,2013-05-17 21:17:00,
2013-05-17 15:26:00,71.0,28.0,29.59,ESE,105,2.0,12.0,20,0.00,,,0.00,,2013-05-17 21:26:00,
2013-05-17 15:39:00,72.0,29.0,29.59,SE,124,4.0,12.0,20,0.00,,,0.00,,2013-05-17 21:39:00,
2013-05-17 15:49:00,72.0,29.0,29.59,SE,124,4.0,12.0,20,0.00,,,0.00,,2013-05-17 21:49:00,
2013-05-17 15:57:00,70.0,27.0,29.59,SE,139,3.0,6.0,20,0.00,,,0.00,,2013-05-17 21:57:00,
2013-05-17 16:07:00,70.0,27.0,29.61,ESE,122,2.0,8.0,20,0.00,,,0.00,,2013-05-17 22:07:00,
2013-05-17 16:17:00,70.0,27.0,29.61,ESE,122,2.0,8.0,20,0.00,,,0.00,,2013-05-17 22:17:00,
2013-05-17 16:28:00,71.0,28.0,29.59,SE,128,2.0,7.0,20,0.00,,,0.00,,2013-05-17 22:28:00,
2013-05-17 16:38:00,73.0,23.0,29.58,ESE,120,10.0,14.0,15,0.00,,,0.00,,2013-05-17 22:38:00,
2013-05-17 16:47:00,73.0,23.0,29.58,ESE,120,10.0,14.0,15,0.00,,,0.00,,2013-05-17 22:47:00,
2013-05-17 16:54:00,74.0,23.0,29.58,SE,129,1.0,12.0,15,0.00,,,0.00,,2013-05-17 22:54:00,
2013-05-17 17:04:00,73.0,19.0,29.57,SW,218,13.0,20.0,13,0.00,,,0.00,,2013-05-17 23:04:00,
2013-05-17 17:13:00,73.0,19.0,29.57,SW,218,13.0,20.0,13,0.00,,,0.00,,2013-05-17 23:13:00,
2013-05-17 17:23:00,70.0,23.0,29.60,SSE,159,6.0,12.0,17,0.00,,,0.00,,2013-05-17 23:23:00,
2013-05-17 17:37:00,70.0,25.0,29.60,SE,128,3.0,12.0,18,0.00,,,0.00,,2013-05-17 23:37:00,
2013-05-17 17:47:00,70.0,25.0,29.60,SE,128,3.0,12.0,18,0.00,,,0.00,,2013-05-17 23:47:00,
2013-05-17 17:54:00,70.0,22.0,29.61,SE,128,6.0,10.0,16,0.00,,,0.00,,2013-05-17 23:54:00,
2013-05-17 18:02:00,69.0,22.0,29.58,SSW,196,4.0,7.0,17,0.00,,,0.00,,2013-05-18 00:02:00,
2013-05-17 18:14:00,69.0,22.0,29.58,SSW,196,4.0,7.0,17,0.00,,,0.00,,2013-05-18 00:14:00,
2013-05-17 18:22:00,70.0,25.0,29.59,South,187,5.0,7.0,18,0.00,,,0.00,,2013-05-18 00:22:00,
2013-05-17 18:33:00,69.0,16.0,29.59,West,269,2.0,12.0,13,0.00,,,0.00,,2013-05-18 00:33:00,
2013-05-17 18:44:00,69.0,16.0,29.59,West,269,2.0,12.0,13,0.00,,,0.00,,2013-05-18 00:44:00,
2013-05-17 18:54:00,69.0,16.0,29.61,SW,228,5.0,10.0,13,0.00,,,0.00,,2013-05-18 00:54:00,
2013-05-17 19:03:00,68.0,31.0,29.58,SSE,149,2.0,5.0,25,0.00,,,0.00,,2013-05-18 01:03:00,
2013-05-17 19:13:00,68.0,31.0,29.58,SSE,149,2.0,5.0,25,0.00,,,0.00,,2013-05-18 01:13:00,
2013-05-17 19:24:00,67.0,33.0,29.58,South,183,5.0,6.0,28,0.00,,,0.00,,2013-05-18 01:24:00,
2013-05-17 19:32:00,66.0,17.0,29.60,West,265,2.0,7.0,15,0.00,,,0.00,,2013-05-18 01:32:00,
2013-05-17 19:42:00,66.0,17.0,29.60,West,265,2.0,7.0,15,0.00,,,0.00,,2013-05-18 01:42:00,
2013-05-17 19:52:00,65.0,18.0,29.62,West,269,4.0,8.0,16,0.00,,,0.00,,2013-05-18 01:52:00,
2013-05-17 20:02:00,63.0,19.0,29.57,WNW,286,3.0,10.0,18,0.00,,,0.00,,2013-05-18 02:02:00,
2013-05-17 20:12:00,63.0,19.0,29.57,WNW,286,3.0,10.0,18,0.00,,,0.00,,2013-05-18 02:12:00,
2013-05-17 20:22:00,62.0,19.0,29.59,WNW,289,6.0,7.0,19,0.00,,,0.00,,2013-05-18 02:22:00,
2013-05-17 20:31:00,61.0,18.0,29.60,WNW,285,4.0,10.0,19,0.00,,,0.00,,2013-05-18 02:31:00,
2013-05-17 20:42:00,61.0,18.0,29.60,WNW,285,4.0,10.0,19,0.00,,,0.00,,2013-05-18 02:42:00,
2013-05-17 20:53:00,61.0,18.0,29.60,WNW,285,4.0,10.0,19,0.00,,,0.00,,2013-05-18 02:53:00,
2013-05-17 21:33:00,60.0,16.0,29.52,WNW,289,7.0,17.0,18,0.00,,,0.00,,2013-05-18 03:33:00,
2013-05-17 21:43:00,60.0,16.0,29.52,WNW,289,7.0,17.0,18,0.00,,,0.00,,2013-05-18 03:43:00,
2013-05-17 21:53:00,60.0,18.0,29.51,West,278,7.0,13.0,19,0.00,,,0.00,,2013-05-18 03:53:00,
2013-05-17 22:02:00,59.0,17.0,29.52,WNW,290,6.0,12.0,19,0.00,,,0.00,,2013-05-18 04:02:00,
2013-05-17 22:12:00,59.0,17.0,29.52,WNW,290,6.0,12.0,19,0.00,,,0.00,,2013-05-18 04:12:00,
2013-05-17 22:23:00,59.0,17.0,29.52,WNW,288,5.0,10.0,19,0.00,,,0.00,,2013-05-18 04:23:00,
2013-05-17 22:33:00,58.0,17.0,29.53,NW,314,2.0,6.0,20,0.00,,,0.00,,2013-05-18 04:33:00,
2013-05-17 22:42:00,58.0,17.0,29.53,NW,314,2.0,6.0,20,0.00,,,0.00,,2013-05-18 04:42:00,
2013-05-17 22:52:00,57.0,16.0,29.52,NW,313,2.0,6.0,20,0.00,,,0.00,,2013-05-18 04:52:00,
2013-05-17 23:02:00,56.0,17.0,29.54,West,273,3.0,6.0,21,0.00,,,0.00,,2013-05-18 05:02:00,
2013-05-17 23:12:00,56.0,17.0,29.54,West,273,3.0,6.0,21,0.00,,,0.00,,2013-05-18 05:12:00,
2013-05-17 23:22:00,58.0,17.0,29.54,West,266,2.0,12.0,20,0.00,,,0.00,,2013-05-18 05:22:00,
2013-05-17 23:31:00,57.0,16.0,29.52,NNW,331,1.0,5.0,20,0.00,,,0.00,,2013-05-18 05:31:00,
2013-05-17 23:42:00,57.0,16.0,29.52,NNW,331,1.0,5.0,20,0.00,,,0.00,,2013-05-18 05:42:00,
2013-05-17 23:51:00,58.0,15.0,29.52,West,266,6.0,14.0,18,0.00,,,0.00,,2013-05-18 05:51:00,